#timestamp,LO_Frequency,Hit,StdDev 
1677589215.5,286046993.9,N
1677589235.3,286046994.3,N
1677589255.1,286046993.7,N
1677589275.9,286046999.2,N
1677589295.7,286046996.7,N
1677589315.5,286046999.3,N
1677589335.4,286046995.0,N
1677589355.2,286046996.2,N
1677589375.1,286046993.7,N
1677589376.0,286046993.7,N
1677589395.8,286046993.1,N
1677589415.6,286046993.8,N
1677589435.5,286046992.7,N
1677589455.3,286046997.2,N
1677589475.1,286047001.0,N
1677589495.9,286047003.0,N
1677589515.7,286047004.8,N
1677589535.6,286047008.1,N
1677589555.4,286047011.3,N
1677589575.2,286047015.2,Y
1677589595.1,286047018.7,P
1677589596.0,286047018.7,N
1677589615.8,286047018.6,N
1677589635.6,286047020.0,N
1677589655.5,286047015.6,N
1677589675.3,286047010.4,N
1677589695.2,286047010.3,N
1677589715.9,286047006.6,N
1677589735.7,286047005.1,N
1677589755.6,286047007.1,N
1677589775.4,286047007.6,N
1677589795.2,286047006.8,N
1677589815.1,286047003.4,N
1677589816.0,286047003.4,N
1677589835.8,286047001.7,N
1677589855.7,286047007.0,N
1677589875.5,286047008.1,N
1677589895.3,286047013.5,N
1677589915.2,286047012.3,N
1677589935.0,286047007.0,N
1677589935.9,286047007.0,N
1677589955.7,286047001.7,N
1677589975.6,286046999.1,N
1677589995.4,286046994.3,N
1677590015.3,286046992.1,N
1677590035.1,286046989.0,N
1677590036.0,286046989.0,N
1677590055.8,286046987.9,N
1677590075.7,286046987.5,N
1677590095.5,286046987.5,N
1677590115.3,286046990.2,N
1677590135.2,286046989.0,N
1677590155.0,286046987.9,N
1677590155.9,286046987.9,N
1677590175.8,286046987.8,N
1677590195.6,286046983.8,N
1677590215.4,286046985.7,N
1677590235.3,286046990.0,N
1677590255.1,286046988.8,N
1677590275.9,286046991.5,N
1677590295.7,286046988.8,N
1677590315.5,286046990.0,N
1677590335.4,286046986.5,N
1677590355.2,286046984.5,N
1677590375.0,286046987.5,N
1677590375.9,286046987.5,N
1677590395.8,286046991.5,N
1677590415.6,286046985.3,N
1677590435.5,286046986.1,N
1677590455.3,286046987.8,N
1677590475.1,286046988.1,N
1677590495.9,286046986.7,Y
1677590515.7,286046996.3,P
1677590535.5,286046998.1,N
1677590555.4,286047002.8,N
1677590575.2,286046998.6,N
1677590595.1,286047001.0,N
1677590596.0,286047001.0,N
1677590615.8,286047002.7,N
1677590635.6,286047002.7,N
1677590655.5,286046998.8,N
1677590675.3,286047004.1,N
1677590695.1,286047001.0,N
1677590715.9,286046999.7,N
1677590735.7,286047002.1,N
1677590755.6,286047000.9,N
1677590775.4,286047001.9,N
1677590795.2,286047001.7,N
1677590815.1,286047000.9,N
1677590816.0,286047000.9,N
1677590835.8,286047000.5,N
1677590855.6,286047002.6,N
1677590875.5,286046995.0,N
1677590895.3,286046994.7,N
1677590915.2,286046993.0,N
1677590935.9,286046997.2,N
1677590955.7,286046998.7,N
1677590975.6,286046997.9,N
1677590995.4,286046996.0,N
1677591015.2,286046995.2,N
1677591035.1,286046994.5,N
1677591036.0,286046994.5,N
1677591055.8,286046992.2,N
1677591075.7,286046992.6,N
1677591095.5,286046993.2,N
1677591115.3,286046988.8,Y
1677591135.2,286046989.1,P
1677591155.0,286046993.0,N
1677591155.9,286046993.0,N
1677591175.7,286046990.0,N
1677591195.6,286046986.2,Y
1677591215.4,286046992.3,P
1677591235.3,286046990.6,P
1677591255.1,286046990.7,P
1677591256.0,286046990.7,Y
1677591275.8,286046996.8,P
1677591295.7,286046994.3,N
1677591315.5,286046996.4,N
1677591335.4,286046997.5,N
1677591355.2,286046995.4,N
1677591375.0,286046996.0,N
1677591375.9,286046996.0,N
1677591395.8,286046995.0,N
1677591415.6,286046995.7,N
1677591435.4,286046994.9,Y
1677591455.3,286047003.2,P
1677591475.1,286047004.6,N
1677591495.9,286047003.8,N
1677591515.7,286046999.8,N
1677591535.5,286047002.7,N
1677591555.4,286047002.3,N
1677591575.2,286047000.1,N
1677591595.0,286047000.1,N
1677591595.9,286047000.1,N
1677591615.8,286046999.6,N
1677591635.6,286046996.2,N
1677591655.5,286046999.1,N
1677591675.3,286047000.0,N
1677591695.1,286047000.8,N
1677591715.9,286047001.0,N
1677591735.7,286047002.0,N
1677591755.5,286047003.0,N
1677591775.4,286047001.6,N
1677591795.2,286046998.8,N
1677591815.1,286046998.6,N
1677591816.0,286046998.6,N
1677591835.8,286046999.1,N
1677591855.6,286047004.2,N
1677591875.5,286047003.6,N
1677591895.3,286047007.6,Y
1677591915.2,286047005.4,P
1677591935.9,286047005.5,N
1677591955.7,286047004.2,N
1677591975.6,286047000.2,N
1677591995.4,286047004.1,N
1677592015.2,286047005.6,N
1677592035.1,286047009.2,Y
1677592036.0,286047009.2,P
1677592055.8,286047009.2,P
1677592075.7,286047007.9,P
1677592095.5,286047010.3,Y
1677592115.4,286046999.9,P
1677592135.2,286047007.5,N
1677592155.0,286047001.3,N
1677592155.9,286047001.3,N
1677592175.8,286047003.5,N
1677592195.6,286047001.9,N
1677592215.4,286047001.4,N
1677592235.3,286047006.6,N
1677592255.1,286047003.7,N
1677592275.9,286047005.2,N
1677592295.7,286047011.9,Y
1677592315.5,286047005.4,P
1677592335.4,286047003.5,P
1677592355.2,286047005.3,P
1677592375.1,286047004.7,Y
1677592376.0,286047004.7,P
1677592395.8,286047007.5,P
1677592415.6,286047001.9,N
1677592435.5,286046998.4,N
1677592455.3,286046993.9,N
1677592505.2,286047000.9,E
1677592515.1,286047000.2,N
1677592516.0,286047000.2,P
1677592535.8,286047003.8,P
1677592555.7,286047005.7,Y
1677592575.5,286047006.5,P
1677592595.3,286047002.7,N
1677592615.2,286047003.6,N
1677592635.0,286047008.5,Y
1677592635.9,286047008.5,P
1677592655.8,286047001.6,N
1677592675.6,286047004.1,N
1677592695.4,286047003.5,N
1677592715.3,286047003.8,N
1677592735.1,286047005.0,N
1677592755.9,286047006.3,Y
1677592775.7,286047004.8,P
1677592795.5,286047006.7,P
